Time,TemperatureF,DewpointF,PressureIn,WindDirection,WindDirectionDegrees,WindSpeedMPH,WindSpeedGustMPH,Humidity,HourlyPrecipIn,Conditions,Clouds,dailyrainin,SoftwareType,DateUTC
2013-04-06 00:04:00,30.0,22.0,-100.00,ESE,110,0.0,1.0,72,0.00,,,-99.99,,2013-04-06 04:04:00,
2013-04-06 00:14:00,30.0,22.0,-100.00,SE,140,0.0,2.0,71,0.00,,,-99.99,,2013-04-06 04:14:00,
2013-04-06 00:23:00,29.0,21.0,-100.00,SSW,205,1.0,1.0,71,0.00,,,-99.99,,2013-04-06 04:23:00,
2013-04-06 00:33:00,29.0,22.0,-100.00,SSE,160,1.0,2.0,72,0.00,,,-99.99,,2013-04-06 04:33:00,
2013-04-06 00:42:00,29.0,22.0,-100.00,SSE,160,2.0,3.0,73,0.00,,,-99.99,,2013-04-06 04:42:00,
2013-04-06 00:52:00,29.0,22.0,-100.00,SSE,150,0.0,4.0,74,0.00,,,-99.99,,2013-04-06 04:52:00,
2013-04-06 01:02:00,29.0,22.0,-100.00,South,170,2.0,3.0,75,0.00,,,-99.99,,2013-04-06 05:02:00,
2013-04-06 01:13:00,29.0,22.0,-100.00,SSW,210,1.0,3.0,75,0.00,,,-99.99,,2013-04-06 05:13:00,
2013-04-06 01:22:00,28.0,22.0,-100.00,West,265,1.0,2.0,76,0.00,,,-99.99,,2013-04-06 05:22:00,
2013-04-06 01:32:00,28.0,22.0,-100.00,SSW,205,1.0,3.0,76,0.00,,,-99.99,,2013-04-06 05:32:00,
2013-04-06 01:42:00,27.0,22.0,-100.00,SSW,205,1.0,3.0,78,0.00,,,-99.99,,2013-04-06 05:42:00,
2013-04-06 01:52:00,27.0,22.0,-100.00,WSW,245,0.0,2.0,79,0.00,,,-99.99,,2013-04-06 05:52:00,
2013-04-06 02:03:00,27.0,22.0,-100.00,SW,215,0.0,1.0,78,0.00,,,-99.99,,2013-04-06 06:03:00,
2013-04-06 02:12:00,27.0,21.0,-100.00,WSW,255,1.0,2.0,78,0.00,,,-99.99,,2013-04-06 06:12:00,
2013-04-06 02:22:00,27.0,22.0,-100.00,SW,235,1.0,1.0,79,0.00,,,-99.99,,2013-04-06 06:22:00,
2013-04-06 02:33:00,27.0,21.0,-100.00,SSW,200,0.0,1.0,78,0.00,,,-99.99,,2013-04-06 06:33:00,
2013-04-06 02:42:00,27.0,21.0,-100.00,South,180,1.0,2.0,79,0.00,,,-99.99,,2013-04-06 06:42:00,
2013-04-06 02:52:00,26.0,21.0,-100.00,SSW,205,0.0,2.0,79,0.00,,,-99.99,,2013-04-06 06:52:00,
2013-04-06 03:03:00,26.0,21.0,-100.00,West,260,1.0,2.0,80,0.00,,,-99.99,,2013-04-06 07:03:00,
2013-04-06 03:12:00,26.0,21.0,-100.00,West,270,1.0,2.0,82,0.00,,,-99.99,,2013-04-06 07:12:00,
2013-04-06 03:22:00,26.0,21.0,-100.00,West,270,1.0,2.0,82,0.00,,,-99.99,,2013-04-06 07:22:00,
2013-04-06 03:33:00,26.0,22.0,-100.00,SW,215,0.0,1.0,83,0.00,,,-99.99,,2013-04-06 07:33:00,
2013-04-06 03:43:00,26.0,21.0,-100.00,SW,225,0.0,1.0,84,0.00,,,-99.99,,2013-04-06 07:43:00,
2013-04-06 03:52:00,26.0,22.0,-100.00,SW,220,0.0,1.0,85,0.00,,,-99.99,,2013-04-06 07:52:00,
2013-04-06 04:02:00,26.0,22.0,-100.00,SW,225,0.0,0.0,85,0.00,,,-99.99,,2013-04-06 08:02:00,
2013-04-06 04:13:00,26.0,22.0,-100.00,SW,225,0.0,0.0,85,0.00,,,-99.99,,2013-04-06 08:13:00,
2013-04-06 04:22:00,25.0,22.0,-100.00,SW,220,1.0,1.0,87,0.00,,,-99.99,,2013-04-06 08:22:00,
2013-04-06 04:32:00,25.0,22.0,-100.00,SW,215,0.0,1.0,87,0.00,,,-99.99,,2013-04-06 08:32:00,
2013-04-06 04:42:00,25.0,22.0,-100.00,SW,220,0.0,1.0,87,0.00,,,-99.99,,2013-04-06 08:42:00,
2013-04-06 04:52:00,25.0,22.0,-100.00,SSW,210,1.0,1.0,88,0.00,,,-99.99,,2013-04-06 08:52:00,
2013-04-06 05:02:00,25.0,22.0,-100.00,SSW,200,0.0,1.0,88,0.00,,,-99.99,,2013-04-06 09:02:00,
2013-04-06 05:12:00,25.0,22.0,-100.00,SSW,200,0.0,1.0,88,0.00,,,-99.99,,2013-04-06 09:12:00,
2013-04-06 05:22:00,24.0,21.0,-100.00,SW,225,0.0,0.0,88,0.00,,,-99.99,,2013-04-06 09:22:00,
2013-04-06 05:33:00,24.0,22.0,-100.00,SW,215,1.0,1.0,88,0.00,,,-99.99,,2013-04-06 09:33:00,
2013-04-06 05:43:00,24.0,22.0,-100.00,SW,215,0.0,2.0,89,0.00,,,-99.99,,2013-04-06 09:43:00,
2013-04-06 05:53:00,25.0,22.0,-100.00,SW,215,0.0,0.0,89,0.00,,,-99.99,,2013-04-06 09:53:00,
2013-04-06 06:03:00,25.0,22.0,-100.00,South,190,0.0,1.0,89,0.00,,,-99.99,,2013-04-06 10:03:00,
2013-04-06 06:13:00,25.0,23.0,-100.00,South,190,0.0,0.0,89,0.00,,,-99.99,,2013-04-06 10:13:00,
2013-04-06 06:23:00,26.0,24.0,-100.00,South,175,0.0,2.0,89,0.00,,,-99.99,,2013-04-06 10:23:00,
2013-04-06 06:33:00,27.0,24.0,-100.00,South,175,0.0,1.0,88,0.00,,,-99.99,,2013-04-06 10:33:00,
2013-04-06 06:42:00,27.0,24.0,-100.00,SSE,160,0.0,1.0,87,0.00,,,-99.99,,2013-04-06 10:42:00,
2013-04-06 06:52:00,27.0,24.0,-100.00,SSE,160,0.0,0.0,85,0.00,,,-99.99,,2013-04-06 10:52:00,
2013-04-06 07:03:00,28.0,23.0,-100.00,SE,125,0.0,1.0,84,0.00,,,-99.99,,2013-04-06 11:03:00,
2013-04-06 07:12:00,28.0,23.0,-100.00,East,95,0.0,1.0,83,0.00,,,-99.99,,2013-04-06 11:12:00,
2013-04-06 07:23:00,27.0,23.0,-100.00,East,90,0.0,0.0,82,0.00,,,-99.99,,2013-04-06 11:23:00,
2013-04-06 07:33:00,27.0,22.0,-100.00,East,90,0.0,0.0,83,0.00,,,-99.99,,2013-04-06 11:33:00,
2013-04-06 07:43:00,27.0,22.0,-100.00,East,95,0.0,0.0,80,0.00,,,-99.99,,2013-04-06 11:43:00,
2013-04-06 07:52:00,28.0,22.0,-100.00,East,80,0.0,1.0,79,0.00,,,-99.99,,2013-04-06 11:52:00,
2013-04-06 08:02:00,29.0,23.0,-100.00,East,90,2.0,4.0,76,0.00,,,-99.99,,2013-04-06 12:02:00,
2013-04-06 08:12:00,30.0,22.0,-100.00,East,95,1.0,3.0,72,0.00,,,-99.99,,2013-04-06 12:12:00,
2013-04-06 08:22:00,31.0,22.0,-100.00,East,95,2.0,5.0,69,0.00,,,-99.99,,2013-04-06 12:22:00,
2013-04-06 08:33:00,32.0,22.0,-100.00,East,80,1.0,4.0,66,0.00,,,-99.99,,2013-04-06 12:33:00,
2013-04-06 08:43:00,32.0,21.0,-100.00,ESE,105,2.0,6.0,64,0.00,,,-99.99,,2013-04-06 12:43:00,
2013-04-06 08:52:00,32.0,20.0,-100.00,East,80,4.0,6.0,60,0.00,,,-99.99,,2013-04-06 12:52:00,
2013-04-06 09:03:00,33.0,20.0,-100.00,ESE,120,2.0,7.0,59,0.00,,,-99.99,,2013-04-06 13:03:00,
2013-04-06 09:13:00,34.0,20.0,-100.00,ENE,75,3.0,7.0,55,0.00,,,-99.99,,2013-04-06 13:13:00,
2013-04-06 09:24:00,34.0,18.0,-100.00,East,95,4.0,9.0,51,0.00,,,-99.99,,2013-04-06 13:24:00,
2013-04-06 09:32:00,34.0,17.0,-100.00,East,95,5.0,9.0,49,0.00,,,-99.99,,2013-04-06 13:32:00,
2013-04-06 09:43:00,35.0,17.0,-100.00,ESE,110,3.0,8.0,48,0.00,,,-99.99,,2013-04-06 13:43:00,
2013-04-06 09:52:00,35.0,17.0,-100.00,ESE,110,3.0,8.0,48,0.00,,,-99.99,,2013-04-06 13:52:00,
2013-04-06 10:05:00,35.0,17.0,-100.00,ENE,60,4.0,11.0,47,0.00,,,-99.99,,2013-04-06 14:05:00,
2013-04-06 10:12:00,34.0,17.0,-100.00,East,90,6.0,11.0,47,0.00,,,-99.99,,2013-04-06 14:12:00,
2013-04-06 10:22:00,34.0,17.0,-100.00,ENE,75,6.0,9.0,47,0.00,,,-99.99,,2013-04-06 14:22:00,
2013-04-06 10:33:00,35.0,17.0,-100.00,ENE,70,5.0,9.0,48,0.00,,,-99.99,,2013-04-06 14:33:00,
2013-04-06 10:42:00,35.0,18.0,-100.00,East,85,5.0,8.0,48,0.00,,,-99.99,,2013-04-06 14:42:00,
2013-04-06 10:52:00,36.0,18.0,-100.00,ESE,105,4.0,9.0,47,0.00,,,-99.99,,2013-04-06 14:52:00,
2013-04-06 11:02:00,37.0,18.0,-100.00,ESE,105,7.0,14.0,45,0.00,,,-99.99,,2013-04-06 15:02:00,
2013-04-06 11:12:00,38.0,18.0,-100.00,East,100,6.0,10.0,44,0.00,,,-99.99,,2013-04-06 15:12:00,
2013-04-06 11:23:00,38.0,18.0,-100.00,ENE,65,6.0,11.0,43,0.00,,,-99.99,,2013-04-06 15:23:00,
2013-04-06 11:33:00,40.0,19.0,-100.00,East,80,2.0,9.0,42,0.00,,,-99.99,,2013-04-06 15:33:00,
2013-04-06 11:43:00,41.0,19.0,-100.00,SE,145,6.0,12.0,41,0.00,,,-99.99,,2013-04-06 15:43:00,
2013-04-06 11:52:00,42.0,20.0,-100.00,ESE,115,6.0,12.0,40,0.00,,,-99.99,,2013-04-06 15:52:00,
2013-04-06 12:05:00,44.0,21.0,-100.00,ENE,70,6.0,9.0,39,0.00,,,-99.99,,2013-04-06 16:05:00,
2013-04-06 12:17:00,43.0,20.0,-100.00,SSE,155,6.0,10.0,38,0.00,,,-99.99,,2013-04-06 16:17:00,
2013-04-06 12:23:00,45.0,21.0,-100.00,SE,140,4.0,11.0,38,0.00,,,-99.99,,2013-04-06 16:23:00,
2013-04-06 12:33:00,45.0,21.0,-100.00,SE,140,3.0,12.0,38,0.00,,,-99.99,,2013-04-06 16:33:00,
2013-04-06 12:42:00,46.0,21.0,-100.00,SSE,160,9.0,14.0,36,0.00,,,-99.99,,2013-04-06 16:42:00,
2013-04-06 12:53:00,45.0,20.0,-100.00,East,90,9.0,14.0,35,0.00,,,-99.99,,2013-04-06 16:53:00,
2013-04-06 13:03:00,46.0,20.0,-100.00,ENE,75,6.0,12.0,35,0.00,,,-99.99,,2013-04-06 17:03:00,
2013-04-06 13:12:00,46.0,20.0,-100.00,ENE,75,6.0,13.0,34,0.00,,,-99.99,,2013-04-06 17:12:00,
2013-04-06 13:22:00,47.0,20.0,-100.00,SSE,160,6.0,11.0,34,0.00,,,-99.99,,2013-04-06 17:22:00,
2013-04-06 13:33:00,48.0,20.0,-100.00,East,95,7.0,16.0,33,0.00,,,-99.99,,2013-04-06 17:33:00,
2013-04-06 13:42:00,49.0,21.0,-100.00,South,180,6.0,16.0,32,0.00,,,-99.99,,2013-04-06 17:42:00,
2013-04-06 13:52:00,50.0,21.0,-100.00,SSE,160,4.0,12.0,32,0.00,,,-99.99,,2013-04-06 17:52:00,
2013-04-06 14:03:00,49.0,20.0,-100.00,ESE,105,7.0,15.0,31,0.00,,,-99.99,,2013-04-06 18:03:00,
2013-04-06 14:12:00,50.0,21.0,-100.00,SE,140,7.0,12.0,31,0.00,,,-99.99,,2013-04-06 18:12:00,
2013-04-06 14:23:00,50.0,20.0,-100.00,SE,145,7.0,17.0,30,0.00,,,-99.99,,2013-04-06 18:23:00,
2013-04-06 14:32:00,51.0,20.0,-100.00,SE,140,5.0,12.0,29,0.00,,,-99.99,,2013-04-06 18:32:00,
2013-04-06 14:42:00,52.0,21.0,-100.00,SSE,155,7.0,14.0,29,0.00,,,-99.99,,2013-04-06 18:42:00,
2013-04-06 14:52:00,51.0,19.0,-100.00,ESE,120,6.0,12.0,28,0.00,,,-99.99,,2013-04-06 18:52:00,
2013-04-06 15:03:00,52.0,20.0,-100.00,East,85,6.0,11.0,27,0.00,,,-99.99,,2013-04-06 19:03:00,
2013-04-06 15:12:00,52.0,19.0,-100.00,SSE,150,6.0,14.0,27,0.00,,,-99.99,,2013-04-06 19:12:00,
2013-04-06 15:23:00,53.0,20.0,-100.00,SSE,160,9.0,14.0,26,0.00,,,-99.99,,2013-04-06 19:23:00,
2013-04-06 15:33:00,53.0,20.0,-100.00,East,85,5.0,11.0,26,0.00,,,-99.99,,2013-04-06 19:33:00,
2013-04-06 15:42:00,53.0,19.0,-100.00,ENE,70,2.0,16.0,26,0.00,,,-99.99,,2013-04-06 19:42:00,
2013-04-06 15:53:00,53.0,19.0,-100.00,SE,145,6.0,13.0,25,0.00,,,-99.99,,2013-04-06 19:53:00,
2013-04-06 16:03:00,53.0,19.0,-100.00,SSE,160,4.0,12.0,25,0.00,,,-99.99,,2013-04-06 20:03:00,
2013-04-06 16:12:00,54.0,20.0,-100.00,SSE,160,7.0,11.0,25,0.00,,,-99.99,,2013-04-06 20:12:00,
2013-04-06 16:22:00,54.0,20.0,-100.00,ESE,110,5.0,14.0,25,0.00,,,-99.99,,2013-04-06 20:22:00,
2013-04-06 16:32:00,54.0,20.0,-100.00,East,90,4.0,12.0,25,0.00,,,-99.99,,2013-04-06 20:32:00,
2013-04-06 16:42:00,54.0,19.0,-100.00,SSE,160,9.0,14.0,25,0.00,,,-99.99,,2013-04-06 20:42:00,
2013-04-06 16:52:00,55.0,20.0,-100.00,SSE,155,4.0,15.0,25,0.00,,,-99.99,,2013-04-06 20:52:00,
2013-04-06 17:02:00,55.0,20.0,-100.00,SE,130,6.0,12.0,25,0.00,,,-99.99,,2013-04-06 21:02:00,
2013-04-06 17:13:00,55.0,20.0,-100.00,East,95,6.0,19.0,25,0.00,,,-99.99,,2013-04-06 21:13:00,
2013-04-06 17:22:00,55.0,20.0,-100.00,SE,125,4.0,14.0,25,0.00,,,-99.99,,2013-04-06 21:22:00,
2013-04-06 17:33:00,56.0,20.0,-100.00,South,170,8.0,17.0,24,0.00,,,-99.99,,2013-04-06 21:33:00,
2013-04-06 17:43:00,55.0,20.0,-100.00,ESE,105,4.0,14.0,24,0.00,,,-99.99,,2013-04-06 21:43:00,
2013-04-06 17:52:00,55.0,20.0,-100.00,SSE,160,7.0,14.0,24,0.00,,,-99.99,,2013-04-06 21:52:00,
2013-04-06 18:03:00,55.0,20.0,-100.00,SSE,155,7.0,13.0,24,0.00,,,-99.99,,2013-04-06 22:03:00,
2013-04-06 18:13:00,55.0,20.0,-100.00,East,85,4.0,9.0,24,0.00,,,-99.99,,2013-04-06 22:13:00,
2013-04-06 18:23:00,55.0,20.0,-100.00,East,80,5.0,12.0,24,0.00,,,-99.99,,2013-04-06 22:23:00,
2013-04-06 18:35:00,55.0,19.0,-100.00,East,90,4.0,16.0,24,0.00,,,-99.99,,2013-04-06 22:35:00,
2013-04-06 18:43:00,55.0,19.0,-100.00,East,95,5.0,12.0,24,0.00,,,-99.99,,2013-04-06 22:43:00,
2013-04-06 18:53:00,55.0,19.0,-100.00,ESE,120,3.0,14.0,24,0.00,,,-99.99,,2013-04-06 22:53:00,
2013-04-06 19:03:00,55.0,19.0,-100.00,SE,130,2.0,11.0,24,0.00,,,-99.99,,2013-04-06 23:03:00,
2013-04-06 19:14:00,56.0,19.0,-100.00,SSE,160,6.0,11.0,23,0.00,,,-99.99,,2013-04-06 23:14:00,
2013-04-06 19:23:00,56.0,19.0,-100.00,SE,125,2.0,12.0,23,0.00,,,-99.99,,2013-04-06 23:23:00,
2013-04-06 19:34:00,56.0,19.0,-100.00,ESE,110,4.0,11.0,23,0.00,,,-99.99,,2013-04-06 23:34:00,
2013-04-06 19:42:00,55.0,19.0,-100.00,SSE,155,7.0,14.0,23,0.00,,,-99.99,,2013-04-06 23:42:00,
2013-04-06 19:52:00,55.0,19.0,-100.00,ESE,115,5.0,16.0,23,0.00,,,-99.99,,2013-04-06 23:52:00,
2013-04-06 20:02:00,55.0,19.0,-100.00,SSE,155,4.0,12.0,23,0.00,,,-99.99,,2013-04-07 00:02:00,
2013-04-06 20:13:00,55.0,18.0,-100.00,ESE,115,6.0,11.0,23,0.00,,,-99.99,,2013-04-07 00:13:00,
2013-04-06 20:22:00,55.0,18.0,-100.00,ESE,110,4.0,9.0,23,0.00,,,-99.99,,2013-04-07 00:22:00,
2013-04-06 20:33:00,54.0,18.0,-100.00,East,95,3.0,7.0,23,0.00,,,-99.99,,2013-04-07 00:33:00,
2013-04-06 20:43:00,54.0,18.0,-100.00,East,90,2.0,6.0,23,0.00,,,-99.99,,2013-04-07 00:43:00,
2013-04-06 20:52:00,54.0,18.0,-100.00,ESE,115,4.0,7.0,24,0.00,,,-99.99,,2013-04-07 00:52:00,
2013-04-06 21:02:00,54.0,18.0,-100.00,SE,145,3.0,6.0,24,0.00,,,-99.99,,2013-04-07 01:02:00,
2013-04-06 21:12:00,54.0,19.0,-100.00,ENE,70,3.0,9.0,24,0.00,,,-99.99,,2013-04-07 01:12:00,
2013-04-06 21:23:00,54.0,19.0,-100.00,ESE,110,3.0,7.0,24,0.00,,,-99.99,,2013-04-07 01:23:00,
2013-04-06 21:33:00,54.0,19.0,-100.00,SE,125,3.0,7.0,24,0.00,,,-99.99,,2013-04-07 01:33:00,
2013-04-06 21:43:00,54.0,19.0,-100.00,SE,135,3.0,7.0,24,0.00,,,-99.99,,2013-04-07 01:43:00,
2013-04-06 21:52:00,54.0,19.0,-100.00,East,100,4.0,9.0,24,0.00,,,-99.99,,2013-04-07 01:52:00,
2013-04-06 22:03:00,53.0,19.0,-100.00,East,100,2.0,9.0,25,0.00,,,-99.99,,2013-04-07 02:03:00,
2013-04-06 22:12:00,53.0,19.0,-100.00,ESE,115,5.0,11.0,25,0.00,,,-99.99,,2013-04-07 02:12:00,
2013-04-06 22:23:00,53.0,19.0,-100.00,East,80,2.0,7.0,25,0.00,,,-99.99,,2013-04-07 02:23:00,
2013-04-06 22:33:00,53.0,19.0,-100.00,SE,130,6.0,10.0,25,0.00,,,-99.99,,2013-04-07 02:33:00,
2013-04-06 22:43:00,53.0,19.0,-100.00,SE,130,6.0,10.0,25,0.00,,,-99.99,,2013-04-07 02:43:00,
2013-04-06 22:52:00,54.0,20.0,-100.00,SSE,150,4.0,12.0,25,0.00,,,-99.99,,2013-04-07 02:52:00,
2013-04-06 23:02:00,54.0,19.0,-100.00,East,95,4.0,12.0,25,0.00,,,-99.99,,2013-04-07 03:02:00,
2013-04-06 23:12:00,54.0,19.0,-100.00,South,170,6.0,9.0,25,0.00,,,-99.99,,2013-04-07 03:12:00,
2013-04-06 23:22:00,54.0,19.0,-100.00,ENE,70,4.0,9.0,25,0.00,,,-99.99,,2013-04-07 03:22:00,
2013-04-06 23:35:00,54.0,19.0,-100.00,SE,125,5.0,11.0,25,0.00,,,-99.99,,2013-04-07 03:35:00,
2013-04-06 23:43:00,54.0,19.0,-100.00,ENE,60,2.0,9.0,25,0.00,,,-99.99,,2013-04-07 03:43:00,
2013-04-06 23:53:00,54.0,19.0,-100.00,SSE,155,4.0,11.0,25,0.00,,,-99.99,,2013-04-07 03:53:00,